Location: 22
(39.7117°N, 89.5929°W)
Time: 09:23:01
(UTC-05:00)

Transit 2A - Pass Details

Date: 05 August 2024
Orbit: 590 x 961 km, 66.7° (Epoch: 13 September)

Event Time Altitude Azimuth Distance (km) Brightness Sun altitude
Rises 13:36:09 0° 335° (NNW) 3,640 9.3 65.9°
Reaches altitude 10° 13:38:51 10° 342° (NNW) 2,701 8.8 65.8°
Maximum altitude 13:44:56 45° 54° (NE) 1,286 7.6 65.3°
Drops below altitude 10° 13:50:49 10° 126° (SE) 2,619 9.0 64.8°
Sets 13:53:24 0° 132° (SE) 3,518 9.5 64.6°
